Vertical_Velocity
1 3 0 -2 1 1 -7 -5 -4 -1 4 -6 -1 2 -5 2 8 -8 -3 3 0 -0 0 1 1 6 -1 0 -1 1 -2 -1 -1 -1 -0 1 -1 -2 -0 -2 -2 0 -1 1 -2 -1 -5 4 -1 -1 2 2 0 0
1 2 -0 4 -0 -1 -6 -3 -0 -7 -7 -5 -7 -9 -0 -1 3 8 -3 -5 2 -0 2 -2 -1 5 4 -5 2 -1 -0 0 -2 -1 2 -0 -3 -0 -2 -2 -2 -4 -3 0 0 -0 1 1 -1 1 -1 -2 -0 -0
2 -4 -1 2 3 5 1 -2 -0 -4 -7 -11 -3 -3 -6 1 7 13 3 -2 -2 4 1 1 -1 -9 4 6 -8 1 1 2 -0 -2 -1 -1 -3 -1 -1 -0 -1 0 -2 1 -0 -2 -2 -1 -1 -1 -1 2 0 0
2 -3 -2 1 -3 0 -1 0 -0 -1 -2 -4 -4 1 0 -3 -0 2 2 4 -1 2 2 3 -1 2 1 -1 -0 8 3 1 2 1 -1 -1 -2 1 -0 1 -2 -0 1 -2 -0 -1 -2 -2 -2 -1 -1 -0 0 0
-0 -2 -0 -1 -0 -2 -2 -1 -7 -5 3 10 -6 -7 -5 -3 2 -3 -0 -0 5 -2 5 2 1 -10 4 -0 4 6 3 4 3 5 -4 -1 -2 -1 -1 -3 3 -1 -2 0 -1 -1 -1 0 -1 -1 -1 -0 -0 -1
4 -0 -6 -2 -2 -6 6 1 -6 -7 -1 -1 1 -3 -8 -6 2 -6 1 0 1 1 -1 -1 2 1 0 4 9 9 19 6 5 3 2 -4 4 -5 -4 -1 0 -3 -1 -2 -0 1 -4 2 0 1 -0 0 0 0
0 0 -0 -1 3 -8 -5 3 -4 -0 2 -5 -10 4 4 -1 5 -5 1 5 1 -0 -2 -1 -2 -2 -0 1 6 6 16 11 5 1 -5 2 1 -7 -3 2 3 -6 -2 -3 -2 -2 -2 -2 2 -1 1 1 -1 0
2 2 1 3 -1 -14 2 4 2 0 5 -6 -1 -1 -7 0 4 1 3 6 2 3 1 1 -4 -11 -7 0 0 1 26 4 2 1 2 2 -0 -5 -13 18 -4 -4 -4 -3 -2 -2 -2 -2 -1 -0 -0 0 1 1
-1 2 -0 -4 -9 -2 1 3 -1 8 -3 -6 4 0 -7 1 2 2 5 4 2 0 2 -1 -6 4 -3 1 -0 17 5 12 3 10 -1 -3 -0 -6 11 -3 1 -1 -4 -3 -3 -2 -1 -1 -3 -1 1 0 0 -0
0 -2 -7 -27 -2 0 1 -4 21 -9 -3 -3 3 0 3 2 1 2 6 4 2 3 0 3 -0 -6 2 7 2 18 13 18 4 -2 -4 -11 9 -2 -5 -0 1 -2 -1 0 1 0 -1 -3 -2 -2 1 -0 1 1
-6 -2 -14 -15 -3 4 1 -2 1 9 -1 -9 1 10 2 0 1 2 4 4 3 2 3 1 -0 -4 -1 3 -0 -1 -3 -0 3 3 -3 2 5 -6 0 -1 -2 -2 -1 -0 0 1 1 1 0 -1 -1 0 1 -0
-12 -13 -3 -1 4 6 17 -6 3 -6 15 2 7 7 -2 2 0 0 3 2 4 1 2 2 1 -0 2 2 1 -0 -1 -2 1 -0 -5 1 -1 -3 0 1 0 1 2 1 0 -0 -0 0 -0 -0 -1 -1 0 1
-4 -3 -1 -7 -1 8 -2 -1 -0 1 8 4 6 6 0 3 -6 -6 3 9 8 4 1 2 2 2 0 -1 1 2 -1 0 1 2 0 0 2 3 3 2 4 1 0 0 -1 -0 0 -1 -1 -1 -0 -1 -1 0
-1 14 15 -2 -0 5 -13 -2 6 9 4 4 1 6 2 -1 0 3 12 5 2 1 -0 2 2 2 1 1 2 1 1 5 1 -1 -1 -1 -0 -1 1 1 -1 0 3 3 2 2 1 1 1 1 -0 -0 -0 0
6 3 -7 -3 13 16 -7 0 3 -0 3 1 5 0 1 1 3 4 5 4 4 3 0 0 1 1 4 4 1 1 -0 -1 -0 -0 0 -0 0 0 -2 -1 1 -1 -0 1 1 0 -0 0 2 1 1 0 -0 -0
6 6 -13 6 11 9 1 -3 0 3 1 -0 2 -2 6 -1 4 3 3 4 3 2 2 -1 1 2 1 -1 2 2 1 2 2 1 2 2 1 1 1 1 1 1 1 1 1 -0 -1 -1 -1 -1 -1 1 0 -0
-5 -0 -0 2 3 3 2 1 -0 1 -6 -5 14 5 1 -0 3 4 3 2 3 1 4 -1 -1 -3 3 -1 3 4 -0 3 3 -0 -1 -1 0 1 1 0 -0 -1 -0 1 1 0 0 0 -0 -1 0 0 -1 -1
-8 -1 -3 7 -0 -5 -2 4 2 -0 -2 10 2 -1 1 -1 0 2 3 1 2 3 2 -2 3 -3 -1 10 1 1 -1 -1 -0 -0 0 -0 -0 -1 1 1 -0 -1 -2 -1 -1 -1 -1 -0 -1 -2 -1 -1 -0 0
-1 3 -1 -7 -1 2 3 2 0 1 4 -0 -0 -0 2 0 -0 0 1 1 -0 2 0 2 -4 2 8 6 -1 -2 -2 -2 -1 1 1 1 -0 -1 -1 -0 -0 -1 -1 -0 -1 -1 -3 -2 -1 -0 -0 -0 -0 -1
-3 -5 -1 -0 -0 3 2 0 -4 -3 2 -0 -2 -2 0 -0 2 1 -0 1 0 -3 -4 -2 8 7 2 -2 -4 -3 -2 -2 1 1 1 0 1 1 -0 -1 -1 -1 -1 -2 -1 -1 -1 -1 -0 1 0 -0 0 -0
-2 -2 2 0 2 1 0 1 -1 0 -3 -1 -2 -0 1 -1 1 0 0 -1 -2 7 3 3 1 -3 -3 -4 1 3 1 1 -1 0 0 0 2 0 -0 0 -0 -0 -0 -0 -0 -1 -0 -0 -0 -0 0 -0 -0 0
-0 1 1 -1 -1 0 1 0 -0 -1 -1 -1 -1 -1 -1 -1 0 3 1 -1 7 3 3 -4 -6 -1 -3 -3 -2 -0 1 0 -0 0 2 1 1 1 0 0 -0 -0 0 -0 0 0 -0 1 1 0 -0 -1 -1 -1
-0 0 1 2 0 3 2 1 -3 -2 -2 -3 -1 -0 -0 0 1 -0 0 3 3 -7 -7 2 3 2 -2 -2 -0 -1 -1 -1 -1 -1 -0 -1 -1 -0 -0 -0 0 1 1 -0 -1 0 -0 -0 -0 -0 -1 -0 1 -0
2 3 2 1 1 0 -1 -3 -1 -0 -1 -2 -2 -1 1 1 1 1 0 1 2 3 1 -0 1 -0 -1 -2 -3 -2 1 1 -0 -0 1 1 -1 -0 -0 -1 -1 -0 1 0 -0 0 -0 1 -0 -1 0 1 0 -1
2 0 1 0 0 -1 -3 -3 -3 -2 -3 -2 -0 3 2 1 -0 -0 1 1 1 2 2 1 -0 1 1 1 0 -0 -1 -1 -0 0 0 -1 0 -0 -1 0 -2 0 0 -2 -1 -1 -2 -1 -2 -1 -1 -1 -1 -1
-1 1 1 1 -2 -3 -3 -2 -1 -1 0 1 -0 -1 -2 -2 1 3 3 2 2 2 3 2 0 -0 1 1 1 1 0 -0 -1 0 1 -1 -1 -0 -0 1 -0 -1 1 -2 -1 -1 -1 -1 -1 -0 -1 -1 -1 0
4 3 1 -2 -3 -3 -3 -2 -1 -1 -1 -1 1 0 -0 0 2 -0 -1 -1 1 3 4 4 4 3 2 2 1 0 1 1 1 1 0 -1 -0 0 1 1 1 -1 -1 0 -0 -1 -2 -2 -1 -1 -1 -0 -1 -1
5 -2 -9 -10 -7 -5 -3 -3 -2 -2 1 -1 -1 -2 0 2 1 2 1 1 0 -0 -1 -1 -1 -0 1 2 2 3 3 2 1 0 -0 -1 -1 -2 -2 1 0 -1 -1 -2 -1 -0 -1 -1 -0 0 -0 -0 -2 -1
-9 -10 -5 -4 -0 1 1 -0 0 1 -2 -2 -0 -2 1 1 -3 -3 4 5 4 2 0 -0 0 -1 -3 1 1 1 0 -0 -1 -1 -0 -2 -0 -3 3 -1 0 1 -0 -2 -2 -1 -1 -0 -1 -0 -1 0 -2 -3
-5 1 3 3 1 -1 -1 -3 -1 -4 -3 -6 -5 -3 -2 2 -3 -6 -6 -5 -2 0 -1 -0 -2 -3 -1 1 -1 -1 -1 -0 -1 -0 0 -1 -2 -4 -2 -1 -1 -1 -1 -1 -1 -1 -1 -0 -1 -2 -1 -1 -2 -0
4 2 -0 0 3 0 -4 -2 -2 -6 -5 -3 -6 -8 -1 -6 3 1 1 6 1 -2 -5 -3 -4 -3 -4 -2 -0 -1 -2 -4 1 -2 -1 -0 -2 -2 -1 -1 -1 -2 -2 -2 -1 -0 0 1 2 1 -1 -1 -3 -2
-2 -1 1 0 2 0 -2 -5 -4 -3 -5 -9 -4 -4 -7 -20 -16 -2 7 -4 -7 -12 -9 -14 -5 -0 -5 -3 -2 -0 -2 -2 -2 -2 -2 -1 -1 -0 -0 -1 -2 -2 -1 -0 -1 -0 -0 0 0 -2 -1 -3 -3 -1
-2 -3 -4 -1 -2 -1 -1 -9 -10 -11 0 -3 1 -1 -4 -9 -18 2 -2 -2 -15 -12 -4 -6 -4 -1 -5 -4 1 2 -4 -2 -2 -1 -0 -1 -1 -1 -0 -1 -0 -1 -0 -0 -0 0 -1 -0 1 1 -1 -1 -0 1
Height
5656 5654 5653 5650 5647 5642 5638 5634 5630 5625 5618 5612 5606 5600 5599 5594 5589 5587 5582 5579 5576 5573 5572 5577 5578 5581 5584 5587 5589 5591 5593 5596 5598 5599 5601 5603 5603 5605 5606 5608 5610 5612 5613 5615 5616 5618 5621 5622 5624 5626 5628 5629 5630 5631
5646 5645 5643 5640 5638 5633 5629 5625 5620 5615 5608 5602 5597 5590 5585 5581 5578 5576 5572 5567 5564 5561 5562 5564 5567 5569 5573 5575 5579 5581 5584 5588 5590 5593 5595 5597 5599 5600 5600 5602 5604 5607 5609 5610 5613 5614 5616 5617 5620 5622 5623 5625 5626 5628
5637 5636 5634 5632 5629 5625 5620 5614 5610 5605 5601 5593 5588 5580 5576 5571 5568 5564 5562 5556 5552 5552 5552 5553 5556 5557 5562 5565 5567 5571 5575 5578 5582 5586 5588 5591 5593 5594 5595 5597 5598 5600 5602 5604 5606 5608 5609 5611 5614 5616 5618 5620 5621 5623
5626 5625 5623 5621 5618 5614 5609 5605 5600 5596 5591 5584 5579 5572 5566 5560 5557 5554 5551 5546 5542 5541 5542 5542 5541 5545 5548 5552 5557 5562 5565 5569 5574 5578 5581 5584 5587 5589 5591 5592 5593 5595 5597 5598 5600 5601 5603 5605 5607 5609 5611 5613 5615 5617
5616 5615 5612 5610 5606 5602 5598 5593 5589 5585 5580 5574 5568 5561 5555 5551 5547 5545 5542 5536 5532 5531 5531 5531 5530 5532 5536 5539 5544 5548 5552 5557 5563 5569 5574 5578 5581 5584 5586 5588 5590 5590 5592 5593 5594 5595 5596 5599 5601 5603 5604 5607 5609 5612
5604 5602 5600 5597 5595 5593 5587 5581 5576 5571 5567 5564 5559 5551 5545 5543 5539 5536 5534 5527 5523 5521 5520 5518 5518 5519 5518 5520 5525 5533 5540 5545 5551 5560 5567 5571 5575 5579 5582 5585 5585 5584 5586 5588 5589 5590 5590 5593 5595 5597 5598 5601 5603 5606
5591 5589 5588 5585 5583 5581 5575 5567 5563 5557 5555 5550 5549 5541 5535 5535 5532 5529 5525 5519 5516 5515 5514 5513 5510 5505 5501 5499 5503 5516 5532 5539 5545 5552 5559 5565 5569 5572 5577 5580 5578 5578 5580 5582 5582 5583 5585 5586 5589 5590 5592 5595 5597 5600
5580 5577 5574 5572 5568 5565 5559 5553 5546 5542 5541 5536 5533 5528 5528 5527 5526 5522 5517 5515 5515 5515 5513 5513 5510 5503 5496 5491 5496 5513 5529 5535 5542 5549 5554 5559 5562 5566 5572 5573 5570 5571 5572 5574 5575 5576 5578 5580 5582 5584 5586 5588 5591 5593
5566 5563 5561 5556 5553 5546 5542 5534 5529 5527 5524 5523 5518 5518 5520 5521 5519 5516 5514 5514 5515 5516 5514 5514 5512 5512 5510 5510 5512 5521 5528 5534 5542 5546 5550 5554 5557 5562 5565 5565 5563 5564 5565 5566 5567 5568 5571 5573 5575 5577 5579 5580 5583 5585
5552 5548 5544 5541 5533 5527 5520 5517 5511 5511 5509 5505 5508 5510 5512 5514 5512 5512 5511 5513 5514 5515 5516 5516 5516 5515 5516 5518 5521 5526 5531 5536 5541 5545 5547 5549 5553 5555 5556 5556 5556 5557 5557 5558 5560 5562 5563 5565 5567 5569 5571 5573 5575 5578
5533 5529 5524 5518 5511 5506 5502 5496 5495 5488 5488 5495 5501 5504 5505 5506 5506 5507 5509 5511 5513 5515 5516 5518 5518 5518 5520 5523 5526 5530 5533 5536 5539 5541 5542 5546 5550 5548 5548 5548 5547 5548 5549 5550 5552 5554 5556 5557 5559 5561 5563 5565 5567 5570
5510 5506 5498 5491 5487 5481 5475 5474 5474 5478 5483 5488 5493 5495 5499 5499 5500 5502 5505 5509 5512 5515 5517 5518 5519 5520 5522 5524 5527 5530 5532 5534 5537 5539 5540 5542 5543 5542 5541 5541 5540 5541 5542 5543 5545 5547 5548 5550 5551 5552 5554 5556 5558 5561
5487 5481 5471 5464 5459 5456 5456 5462 5467 5471 5478 5482 5486 5489 5492 5493 5493 5496 5502 5508 5511 5513 5516 5518 5519 5521 5522 5525 5527 5529 5531 5533 5534 5535 5536 5537 5537 5536 5537 5537 5536 5537 5538 5539 5540 5542 5543 5544 5545 5546 5547 5548 5550 5552
5464 5453 5448 5439 5435 5436 5449 5457 5464 5469 5473 5476 5479 5483 5486 5488 5490 5495 5500 5504 5508 5510 5513 5516 5517 5519 5521 5523 5525 5527 5529 5531 5531 5533 5534 5535 5535 5534 5535 5534 5534 5534 5535 5536 5537 5539 5540 5541 5541 5541 5541 5542 5544 5545
5437 5436 5439 5437 5436 5437 5444 5453 5460 5465 5467 5471 5475 5478 5483 5483 5484 5489 5495 5500 5504 5507 5511 5513 5515 5517 5519 5521 5524 5526 5528 5529 5530 5532 5532 5533 5534 5534 5534 5534 5534 5534 5534 5535 5536 5536 5537 5537 5538 5538 5538 5539 5539 5540
5427 5429 5433 5437 5439 5438 5445 5451 5455 5460 5463 5466 5470 5475 5477 5478 5479 5483 5490 5495 5499 5503 5507 5510 5513 5515 5518 5520 5523 5524 5526 5527 5529 5530 5531 5531 5532 5532 5533 5533 5533 5534 5534 5534 5534 5534 5534 5534 5535 5535 5535 5535 5536 5536
5425 5428 5432 5435 5435 5439 5445 5449 5452 5455 5458 5462 5467 5470 5471 5473 5473 5476 5482 5489 5494 5499 5503 5506 5509 5512 5515 5517 5520 5522 5523 5525 5526 5527 5528 5529 5530 5530 5530 5530 5531 5531 5531 5531 5531 5531 5532 5532 5532 5531 5531 5531 5532 5532
5424 5427 5429 5432 5436 5439 5442 5445 5448 5451 5455 5459 5462 5464 5464 5466 5467 5469 5475 5482 5488 5492 5496 5500 5505 5508 5511 5514 5515 5517 5518 5520 5521 5523 5524 5524 5524 5525 5525 5525 5525 5526 5526 5526 5526 5526 5526 5526 5526 5526 5527 5527 5527 5527
5422 5425 5427 5430 5434 5437 5440 5443 5446 5449 5452 5454 5456 5457 5458 5460 5461 5462 5467 5473 5479 5484 5488 5493 5497 5503 5506 5506 5508 5510 5512 5514 5516 5517 5517 5517 5515 5515 5515 5516 5518 5519 5519 5520 5520 5520 5519 5518 5517 5518 5518 5519 5519 5519
5421 5424 5426 5429 5433 5436 5439 5442 5444 5445 5446 5448 5449 5449 5450 5453 5454 5456 5459 5464 5470 5475 5480 5486 5493 5495 5495 5497 5500 5503 5507 5509 5510 5510 5509 5508 5506 5506 5507 5508 5509 5510 5510 5511 5512 5513 5512 5512 5511 5511 5511 5512 5512 5512
5420 5423 5426 5429 5432 5435 5437 5437 5439 5440 5440 5441 5441 5442 5443 5445 5447 5449 5452 5456 5461 5469 5476 5481 5482 5481 5486 5493 5496 5499 5500 5501 5502 5502 5501 5501 5502 5502 5502 5502 5503 5504 5505 5506 5506 5506 5506 5506 5506 5506 5506 5506 5506 5506
5418 5421 5424 5427 5430 5432 5433 5434 5435 5435 5435 5435 5435 5435 5436 5438 5439 5442 5445 5448 5454 5461 5467 5470 5470 5474 5483 5487 5489 5491 5492 5492 5492 5493 5494 5495 5496 5496 5497 5497 5498 5499 5499 5500 5500 5500 5500 5500 5500 5500 5500 5499 5499 5498
5417 5420 5423 5425 5428 5429 5431 5432 5434 5433 5433 5432 5431 5431 5432 5433 5434 5436 5438 5442 5447 5450 5455 5459 5462 5467 5475 5477 5479 5481 5481 5483 5484 5485 5486 5487 5488 5489 5490 5490 5491 5491 5491 5492 5491 5492 5492 5491 5491 5491 5490 5490 5489 5488
5417 5419 5421 5424 5426 5428 5430 5431 5431 5432 5432 5432 5431 5431 5430 5430 5431 5432 5434 5436 5440 5443 5446 5451 5454 5457 5462 5466 5469 5470 5472 5473 5474 5476 5477 5479 5480 5480 5481 5481 5481 5481 5482 5481 5481 5481 5480 5480 5479 5479 5478 5477 5477 5476
5415 5418 5421 5422 5424 5426 5427 5428 5429 5429 5429 5430 5431 5431 5431 5431 5431 5431 5431 5433 5434 5437 5439 5443 5445 5448 5451 5455 5458 5460 5462 5463 5465 5467 5468 5469 5469 5470 5470 5470 5470 5470 5470 5470 5470 5469 5468 5468 5467 5466 5465 5464 5463 5462
5414 5416 5419 5420 5422 5424 5425 5427 5427 5428 5429 5429 5430 5430 5430 5430 5431 5431 5432 5432 5432 5433 5434 5435 5437 5439 5441 5444 5446 5449 5451 5453 5454 5455 5456 5457 5458 5458 5458 5459 5458 5459 5458 5457 5457 5456 5455 5454 5453 5452 5451 5449 5448 5447
5412 5414 5416 5418 5420 5422 5424 5424 5425 5426 5427 5427 5428 5428 5429 5429 5429 5429 5429 5429 5429 5430 5430 5431 5432 5433 5434 5435 5437 5438 5440 5442 5443 5445 5446 5446 5447 5447 5448 5448 5447 5447 5446 5445 5444 5443 5442 5441 5439 5437 5436 5434 5432 5431
5408 5410 5413 5415 5416 5417 5418 5419 5420 5421 5422 5423 5424 5425 5426 5426 5426 5427 5426 5426 5425 5425 5426 5426 5426 5427 5428 5429 5430 5431 5432 5433 5434 5435 5436 5437 5437 5437 5437 5437 5436 5435 5434 5433 5431 5430 5428 5427 5425 5423 5421 5419 5417 5416
5403 5406 5408 5409 5410 5412 5413 5414 5415 5415 5416 5416 5417 5417 5419 5419 5420 5420 5421 5421 5421 5420 5420 5420 5420 5421 5421 5421 5422 5423 5423 5425 5426 5426 5427 5427 5427 5427 5427 5426 5425 5424 5422 5420 5418 5417 5415 5413 5411 5409 5407 5404 5401 5399
5399 5400 5401 5401 5402 5402 5403 5403 5404 5404 5404 5405 5406 5407 5408 5408 5408 5409 5411 5412 5412 5412 5412 5411 5411 5411 5412 5413 5413 5414 5415 5415 5416 5417 5417 5417 5416 5415 5415 5414 5414 5412 5410 5408 5406 5404 5402 5399 5396 5394 5391 5389 5386 5384
5390 5391 5391 5392 5392 5392 5392 5392 5392 5392 5392 5392 5392 5392 5394 5394 5397 5397 5398 5399 5398 5399 5398 5399 5400 5400 5401 5402 5404 5404 5405 5405 5406 5406 5406 5406 5405 5404 5403 5402 5401 5400 5398 5396 5394 5391 5388 5385 5383 5379 5376 5373 5369 5366
5381 5382 5382 5382 5381 5380 5379 5379 5379 5379 5379 5378 5377 5376 5375 5374 5376 5381 5382 5379 5379 5379 5381 5383 5387 5389 5390 5392 5393 5394 5394 5395 5395 5396 5396 5396 5395 5394 5393 5391 5389 5387 5385 5383 5381 5378 5375 5371 5367 5363 5358 5353 5349 5345
5372 5371 5370 5369 5368 5367 5365 5363 5362 5361 5360 5357 5356 5353 5352 5349 5347 5354 5358 5358 5357 5360 5364 5368 5372 5376 5379 5381 5382 5383 5384 5385 5386 5387 5386 5386 5385 5384 5382 5380 5379 5377 5374 5371 5368 5364 5359 5354 5349 5343 5338 5334 5330 5327